Location: Atherton
(17.2661°S, 145.4859°E)
Time: 03:22:02
(UTC+10:00)

Vanguard 2 Rocket - All Passes

Search period start: 20 April 2026 00:00
Search period end: 30 April 2026 00:00
Orbit: 554 x 3286 km, 32.9° (Epoch: 19 April)

Date Brightness Start Highest point End Pass type
(mag) Time Alt. Az. Time Alt. Az. Time Alt. Az.
20 Apr - 04:29:50 10° NW 04:34:43 64° NE 04:42:55 10° ESE visible
20 Apr - 06:42:01 10° W 06:48:49 44° SSW 07:00:35 10° SE daylight
20 Apr - 08:56:03 10° WSW 09:06:07 40° S 09:22:02 10° ESE daylight
20 Apr - 11:10:16 10° SW 11:25:04 60° SSE 11:44:58 10° E daylight
20 Apr - 13:25:26 10° WSW 13:43:57 78° NW 14:03:12 10° NE daylight
20 Apr - 15:44:46 10° W 16:01:24 34° NW 16:15:41 10° NNE daylight
21 Apr - 03:26:18 10° NNW 03:30:10 29° NE 03:35:36 10° E visible
21 Apr - 05:37:10 10° W 05:42:49 55° SSW 05:52:39 10° SE visible
21 Apr - 07:50:43 10° WSW 07:58:50 37° S 08:12:07 10° ESE daylight
21 Apr - 10:04:38 10° SW 10:17:00 49° SSE 10:35:25 10° E daylight
21 Apr - 12:18:54 10° WSW 12:35:45 84° SSE 12:56:03 10° ENE daylight
21 Apr - 14:35:45 10° WSW 14:53:53 48° NW 15:10:57 10° NNE daylight
21 Apr - 17:02:33 10° WNW 17:10:52 14° NW 17:18:20 10° NNW daylight
22 Apr - 02:24:42 10° NNE 02:25:46 11° NE 02:26:54 10° ENE visible
22 Apr - 04:32:40 10° WNW 04:37:28 82° SSW 04:45:28 10° ESE visible
22 Apr - 06:45:34 10° WSW 06:52:07 36° S 07:03:01 10° ESE daylight
22 Apr - 08:59:19 10° SW 09:09:20 41° SSE 09:25:15 10° ESE daylight
22 Apr - 11:12:59 10° SW 11:27:38 69° SSE 11:47:50 10° ENE daylight
22 Apr - 13:28:09 10° WSW 13:45:59 65° NW 14:05:08 10° NE daylight
22 Apr - 15:49:01 10° W 16:03:29 25° NW 16:16:30 10° N daylight
23 Apr - 03:28:35 10° NW 03:32:42 51° NE 03:38:43 10° ESE visible
23 Apr - 05:40:36 10° W 05:46:00 40° SSW 05:54:58 10° SE visible
23 Apr - 07:54:11 10° WSW 08:02:10 35° S 08:15:06 10° ESE daylight
23 Apr - 10:07:31 10° SW 10:19:49 55° SSE 10:38:33 10° E daylight
23 Apr - 12:21:32 10° WSW 12:37:56 82° NNW 12:58:17 10° NE daylight
23 Apr - 14:39:07 10° W 14:55:53 38° NW 15:12:14 10° NNE daylight
24 Apr - 02:25:12 10° N 02:28:16 21° NE 02:31:53 10° E visible
24 Apr - 04:35:49 10° W 04:40:27 53° SSW 04:47:53 10° SE visible
24 Apr - 06:49:10 10° WSW 06:55:30 31° S 07:05:39 10° ESE daylight
24 Apr - 09:02:24 10° SW 09:12:24 43° SSE 09:28:30 10° E daylight
24 Apr - 11:15:39 10° WSW 11:30:01 80° SSE 11:50:23 10° ENE daylight
24 Apr - 13:31:06 10° WSW 13:48:02 52° NW 14:06:44 10° NNE daylight
24 Apr - 15:54:31 10° WNW 16:05:53 18° NW 16:16:29 10° N daylight
25 Apr - 03:31:19 10° WNW 03:35:27 90° NE 03:41:28 10° ESE visible
25 Apr - 05:44:11 10° WSW 05:49:19 31° S 05:57:21 10° SE visible
25 Apr - 07:57:30 10° SW 08:05:26 35° SSE 08:18:15 10° ESE daylight
25 Apr - 10:10:18 10° SW 10:22:27 63° SSE 10:41:27 10° ENE daylight
25 Apr - 12:24:18 10° WSW 12:40:06 68° NW 13:00:09 10° NE daylight
25 Apr - 14:43:07 10° W 14:58:06 29° NW 15:13:04 10° NNE daylight
26 Apr - 02:27:12 10° NW 02:30:53 39° NE 02:35:21 10° ESE night (unlit)
26 Apr - 04:39:14 10° W 04:43:36 35° SSW 04:50:13 10° SE visible
26 Apr - 06:52:42 10° SW 06:58:51 29° S 07:08:32 10° ESE daylight
26 Apr - 09:05:20 10° SW 09:15:18 49° SSE 09:31:41 10° E daylight
26 Apr - 11:18:21 10° WSW 11:32:20 86° NNW 11:52:35 10° NE daylight
26 Apr - 13:34:24 10° W 13:50:12 41° NW 14:07:57 10° NNE daylight
26 Apr - 16:02:52 10° NW 16:08:42 12° NW 16:14:21 10° NNW daylight
27 Apr - 01:23:49 10° N 01:26:20 16° NE 01:28:55 10° ENE night (unlit)
27 Apr - 03:34:24 10° WNW 03:38:24 52° SSW 03:44:00 10° SE visible
27 Apr - 05:47:52 10° SW 05:52:42 25° S 05:59:54 10° SE visible
27 Apr - 08:00:38 10° SW 08:08:33 37° SSE 08:21:33 10° E daylight
27 Apr - 10:13:03 10° SW 10:24:56 75° SSE 10:44:03 10° ENE daylight
27 Apr - 12:27:16 10° WSW 12:42:19 55° NW 13:01:42 10° NE daylight
27 Apr - 14:48:07 10° WNW 15:00:35 21° NW 15:13:16 10° N daylight
28 Apr - 02:29:45 10° NW 02:33:39 78° NNE 02:38:20 10° ESE night (unlit)
28 Apr - 04:42:53 10° WSW 04:46:54 25° S 04:52:35 10° SE visible
28 Apr - 06:56:04 10° SW 07:02:10 28° SSE 07:11:41 10° ESE daylight
28 Apr - 09:08:10 10° SW 09:18:00 57° SSE 09:34:41 10° ENE daylight
28 Apr - 11:21:11 10° WSW 11:34:38 72° NNW 11:54:28 10° NE daylight
28 Apr - 13:38:17 10° W 13:52:34 31° NW 14:08:45 10° NNE daylight
29 Apr - 01:25:25 10° NNW 01:29:06 32° NNE 01:32:46 10° E night (unlit)
29 Apr - 03:37:48 10° W 03:41:31 32° SSW 03:46:24 10° SE visible
29 Apr - 05:51:29 10° SW 05:56:05 22° S 06:02:42 10° SE visible
29 Apr - 08:03:36 10° SW 08:11:30 42° SSE 08:24:49 10° E daylight
29 Apr - 10:15:48 10° WSW 10:27:21 89° SE 10:46:18 10° ENE daylight
29 Apr - 12:30:35 10° W 12:44:40 43° NW 13:02:51 10° NNE daylight
29 Apr - 14:54:57 10° WNW 15:03:29 14° NW 15:12:10 10° N daylight
